Home   Weather   Lillesand   Past weeks

Flag for Norway Past Weather in Lillesand, Norway — Yesterday and Last 2 Weeks

Now
28 °F

Chilly.


Feels Like: 28 °F
Forecast: 35 / 41 °F
Wind: 1 mph from Northeast

Location: Kristiansand / Kjevik

Current Time: Jan 21, 2017 at 5:34:15 am

Latest Report: Jan 21, 2017 at 4:00 am


Visibility: N/A

Pressure: 30.40 "Hg

Humidity: 100%

Dew Point: 28 °F

Location of LillesandLocation

Past Weather in Lillesand — Graph

°F

Lillesand Temperature Yesterday

Maximum temperature yesterday: 50 °F (at 2:00 pm)
Minimum temperature yesterday: 31 °F (at 10:00 pm)
Average temperature yesterday: 43 °F

High & Low Weather Summary for the Past Weeks

 TemperatureHumidityPressure
High50 °F (Jan 20, 2:00 pm)100% (Jan 13, 9:00 pm)30.66 "Hg (Jan 13, 9:00 pm)
Low13 °F (Jan 16, 9:00 am)61% (Jan 15, 12:00 am)28.64 "Hg (Jan 11, 12:00 pm)
Average35 °F87%29.95 "Hg
* Reported Jan 6 4:00 am — Jan 21 4:00 am, Lillesand, Weather by CustomWeather, © 2017

Note: Actual official high and low records may vary slightly from our data, if they occured in-between our weather recording intervals... More about our weather records

Advertising

Lillesand Weather History for the Previous 24 Hours

Scroll right to see more
 ConditionsComfort  
Time TempWeatherWind HumidityBarometerVisibility
4:00 am
Sat, Jan 21
28 °FChilly.1 mph100%30.40 "HgN/A
3:00 am31 °FChilly.2 mph98%30.40 "HgN/A
2:00 am29 °FChilly.3 mph99%30.41 "HgN/A
1:00 am31 °FChilly.3 mph96%30.42 "HgN/A
12:00 am34 °FChilly.2 mph93%30.42 "HgN/A
11:00 pm
Fri, Jan 20
32 °FChilly.2 mph97%30.42 "HgN/A
10:00 pm31 °FChilly.1 mph96%30.41 "HgN/A
9:00 pm36 °FChilly.1 mph97%30.40 "HgN/A
8:00 pm35 °FChilly.1 mph90%30.39 "HgN/A
7:00 pm41 °FQuite cool.2 mph87%30.37 "HgN/A
6:00 pm44 °FQuite cool.2 mph75%30.37 "HgN/A
5:00 pm47 °FCool.5 mph72%30.36 "HgN/A
4:00 pm48 °FCool.5 mph68%30.36 "HgN/A
3:00 pm49 °FCool.3 mph67%30.37 "HgN/A
2:00 pm50 °FCool.2 mph61%30.38 "HgN/A
1:00 pm49 °FCool.3 mph65%30.39 "HgN/A
12:00 pm49 °FCool.5 mph67%30.39 "HgN/A
11:00 am47 °FCool.5 mph71%30.38 "HgN/A
10:00 am45 °FCool.6 mph73%30.37 "HgN/A
9:00 am46 °FCool.5 mph71%30.37 "HgN/A
8:00 am46 °FCool.3 mph70%30.35 "HgN/A
7:00 am44 °FQuite cool.6 mph79%30.35 "HgN/A
6:00 am43 °FQuite cool.7 mph84%30.36 "HgN/A
5:00 am42 °FQuite cool.6 mph85%30.37 "HgN/A
Weather by CustomWeather, © 2017

See weather overviewHow to use our weather pages